AirNav   Pilot Hours Calculator
 
 409 users online  

9NC2 Flyers Airpark
Linden, North Carolina, USA

GOING TO LINDEN?


FAA INFORMATION EFFECTIVE 16 JUNE 2022

Location

FAA Identifier: 9NC2
Lat/Long: 35-13-05.5860N 078-47-47.0840W
35-13.093100N 078-47.784733W
35.2182183,-78.7964122
(estimated)
Elevation: 115 ft. / 35 m (estimated)
Variation: 07W (1985)
From city: 4 miles N of LINDEN, NC
Time zone: UTC -4 (UTC -5 during Standard Time)
Zip code: 28356

Airport Operations

Airport use: Private use. Permission required prior to landing
Activation date: 06/1991
Control tower: no
ARTCC: WASHINGTON CENTER
FSS: RALEIGH FLIGHT SERVICE STATION
Attendance: UNATNDD
Wind indicator: yes
Segmented circle: no

Airport Communications

WX AWOS-3 at HRJ (10 nm N): 119.025 (910-814-3946)
WX ASOS at FAY (14 nm S): 121.25 (910-484-1546)

Airport Services

Runway Information

Runway 4/22

Dimensions: 2850 x 65 ft. / 869 x 20 m
Surface: turf
RUNWAY 4  RUNWAY 22
Traffic pattern: leftleft
Obstructions: 55 ft. trees, 150 ft. from runway70 ft. trees, 50 ft. from runway

Airport Ownership and Management from official FAA records

Ownership: Privately-owned
Owner: RONNIE BILL
657 FLYERS DRIVE
LINDEN, NC 28356
Phone (910) 980-0846
Manager: RONNIE BILL
657 FLYERS DRIVE
LINDEN, NC 28356
Phone (910) 980-0846

Airport Operational Statistics

Aircraft based on the field: 5
Single engine airplanes: 3
Ultralights: 2
    

Additional Remarks

FOR CD CTC WASHINGTON ARTCC AT 703-771-3587.

Instrument Procedures

There are no published instrument procedures at 9NC2.

Some nearby airports with instrument procedures:

KFBG - Simmons Army Airfield (9 nm SW)
KHRJ - Harnett Regional Jetport Airport (10 nm N)
KPOB - Pope Army Airfield (11 nm W)
KFAY - Fayetteville Regional Airport/Grannis Field (14 nm S)
5W4 - P K Airpark (23 nm SW)
 
Loc | Ops | Rwys | IFR | FBO | Links
Com | Nav | Svcs | Stats | Notes
Area around 9NC2 (Flyers Airpark)
 
Road maps at: MapQuest Bing Google
 
Aerial photo
WARNING: Photo may not be current or correct
Aerial photo of 9NC2 (Flyers Airpark)
Photo taken 05-Mar-2006
Photo taken from 1000 ft

Do you have a better or more recent aerial photo of Flyers Airpark that you would like to share? If so, please send us your photo.

 
Sectional chart

 
Airport distance calculator
Flying to Flyers Airpark? Find the distance to fly.

From to 9NC2

Sunrise and sunset
Times for 25-Jun-2022
 Local
(UTC-4)
 Zulu
(UTC)
Morning civil twilight05:3309:33
Sunrise06:0310:03
Sunset20:3300:33
Evening civil twilight21:0201:02

Current date and time
Zulu (UTC)  25-Jun-2022 09:11:35
Local (UTC-4)  25-Jun-2022 05:11:35
 
METAR
KFBG 
8nm SW 
250856Z AUTO 00000KT 10SM CLR 21/19 A3009 RMK AO2 SLP190 T02050193 53003 $
KHRJ 
10nm N 
250855Z AUTO 00000KT 10SM SCT016 20/19 A3013 RMK AO2 T02030193
KPOB 
11nm W 
250856Z AUTO 05003KT 10SM CLR 20/19 A3009 RMK AO2 SLP190 T01970187 52005 $
KFAY 
15nm S 
250853Z AUTO 07003KT 10SM FEW075 19/18 A3010 RMK AO2 SLP185 T01940183 53003
TAF
KFBG 
8nm SW 
250100Z 2501/2607 VRB06KT 9999 FEW017 QNH2997INS TX33/2520Z TN19/2510Z
KPOB 
11nm W 
250100Z 2501/2607 12005KT 9999 SKC QNH3001INS TEMPO 2508/2512 8000 BR FEW015 BECMG 2513/2514 10008KT 9999 FEW040 QNH3010INS TX33/2520Z TN19/2510Z LAST NO AMDS AFT 2502 NEXT 2717
KFAY 
15nm S 
250520Z 2506/2606 09003KT P6SM FEW250
NOTAMs
Click for the latest NOTAMs
NOTAMs are issued by the DoD/FAA and will open in a separate window not controlled by AirNav.

 

 
 

Would you like to see your business listed on this page?

 If your business provides an interesting product or service to pilots, flight crews, aircraft, or users of the Flyers Airpark, you should consider listing it here.  To start the listing process, click on the button below
 
Add a business
 

Other Pages about Flyers Airpark

Update a link
 
Copyright © AirNav, LLC. All rights reserved. Privacy Policy  Contact